Location: Bagnara
(41.0500°N, 14.7833°E)
Time: 14:46:02
(UTC+00:00)

Cosmos 1697 Rocket - Pass Details

Date: 20 June 2021
Orbit: 831 x 845 km, 71.0° (Epoch: 04 August)

Event Time Altitude Azimuth Distance (km) Brightness Sun altitude
Rises 02:09:33 0° 343° (NNW) 3,402 6.3 -12.3°
Reaches altitude 10° 02:12:12 10° 352° (N) 2,466 5.7 -11.9°
Maximum altitude 02:17:24 36° 58° (ENE) 1,313 4.5 -11.3°
Drops below altitude 10° 02:22:33 10° 124° (SE) 2,459 5.3 -10.6°
Sets 02:25:12 0° 133° (SE) 3,391 5.9 -10.2°
